QPF
0.14 0.14 0.14 0.10 0.12 0.13 0.14 0.15 0.12 0.13 0.15 0.16 0.17 0.20 0.18 0.16 0.15 0.13 0.08 0.06 0.07 0.06 0.06 0.06 0.04 0.02 0.02 0.02 0.02 0.02 0.01 0.01 0.01 0.02 0.03 0.03 0.03 0.04 0.04 0.05 0.06 0.08 0.04
0.19 0.15 0.16 0.10 0.09 0.11 0.14 0.17 0.17 0.17 0.17 0.17 0.18 0.20 0.21 0.18 0.15 0.13 0.10 0.09 0.08 0.07 0.06 0.06 0.04 0.03 0.03 0.02 0.01 0.01 0.01 0.00 0.01 0.01 0.01 0.02 0.03 0.04 0.05 0.05 0.04 0.06 0.06
0.07 0.08 0.08 0.07 0.07 0.09 0.14 0.18 0.21 0.26 0.25 0.22 0.21 0.18 0.18 0.20 0.18 0.15 0.13 0.11 0.09 0.09 0.08 0.08 0.06 0.04 0.03 0.02 0.01 0.01 0.00 0.00 0.00 0.00 0.00 0.00 0.01 0.01 0.03 0.04 0.04 0.03 0.04
0.07 0.07 0.09 0.11 0.11 0.11 0.12 0.16 0.20 0.21 0.20 0.16 0.13 0.10 0.09 0.11 0.13 0.12 0.10 0.10 0.09 0.09 0.08 0.09 0.08 0.05 0.04 0.03 0.02 0.01 0.00 0.00 0.00 0.00 0.00 0.00 0.00 0.00 0.02 0.03 0.03 0.03 0.02
0.10 0.12 0.14 0.16 0.15 0.11 0.11 0.13 0.15 0.19 0.17 0.10 0.09 0.10 0.09 0.09 0.13 0.13 0.12 0.12 0.11 0.11 0.11 0.09 0.08 0.05 0.03 0.03 0.01 0.01 0.01 0.00 0.00 0.00 0.00 0.00 0.00 0.00 0.01 0.01 0.01 0.02 0.01
0.10 0.14 0.19 0.16 0.14 0.10 0.09 0.08 0.11 0.15 0.19 0.17 0.11 0.10 0.10 0.10 0.11 0.11 0.10 0.10 0.12 0.13 0.12 0.11 0.08 0.06 0.04 0.03 0.02 0.01 0.02 0.01 0.00 0.00 0.00 0.00 0.00 0.00 0.00 0.00 0.00 0.00 0.00
0.05 0.06 0.08 0.07 0.06 0.06 0.06 0.07 0.07 0.09 0.14 0.17 0.14 0.09 0.08 0.10 0.11 0.11 0.08 0.08 0.08 0.09 0.08 0.08 0.07 0.05 0.04 0.03 0.02 0.02 0.01 0.01 0.00 0.00 0.00 0.00 0.00 0.00 0.00 0.00 0.00 0.00 0.00
0.05 0.04 0.04 0.05 0.04 0.03 0.04 0.05 0.06 0.07 0.12 0.15 0.16 0.15 0.10 0.09 0.10 0.11 0.09 0.08 0.06 0.06 0.04 0.05 0.05 0.03 0.03 0.03 0.02 0.02 0.02 0.01 0.00 0.00 0.00 0.00 0.00 0.00 0.00 0.00 0.00 0.00 0.00
0.05 0.04 0.03 0.04 0.04 0.03 0.03 0.03 0.02 0.03 0.06 0.12 0.15 0.14 0.10 0.09 0.08 0.09 0.10 0.08 0.06 0.05 0.05 0.04 0.03 0.02 0.03 0.03 0.02 0.02 0.01 0.01 0.00 0.00 0.00 0.00 0.00 0.00 0.00 0.00 0.00 0.00 0.00
0.06 0.06 0.05 0.05 0.03 0.02 0.02 0.02 0.01 0.02 0.04 0.09 0.14 0.13 0.11 0.08 0.06 0.05 0.07 0.08 0.07 0.06 0.06 0.05 0.04 0.04 0.03 0.02 0.03 0.03 0.02 0.01 0.01 0.01 0.01 0.00 0.00 0.00 0.00 0.00 0.00 0.00 0.00
0.08 0.06 0.05 0.04 0.03 0.03 0.02 0.01 0.01 0.03 0.04 0.07 0.11 0.13 0.11 0.09 0.07 0.05 0.05 0.06 0.07 0.08 0.07 0.07 0.06 0.04 0.03 0.03 0.03 0.03 0.02 0.02 0.01 0.01 0.01 0.01 0.00 0.00 0.00 0.00 0.00 0.01 0.01
0.07 0.06 0.04 0.03 0.03 0.03 0.02 0.01 0.01 0.03 0.03 0.06 0.10 0.13 0.12 0.09 0.08 0.05 0.04 0.06 0.07 0.10 0.08 0.08 0.07 0.06 0.04 0.03 0.02 0.02 0.02 0.02 0.01 0.01 0.01 0.01 0.02 0.02 0.01 0.01 0.01 0.01 0.02
0.08 0.07 0.05 0.04 0.04 0.04 0.03 0.02 0.01 0.02 0.02 0.05 0.09 0.12 0.12 0.10 0.08 0.05 0.05 0.06 0.09 0.11 0.10 0.08 0.06 0.05 0.05 0.05 0.04 0.03 0.04 0.03 0.02 0.02 0.02 0.03 0.05 0.04 0.03 0.03 0.02 0.02 0.02
0.14 0.09 0.05 0.04 0.04 0.05 0.04 0.03 0.02 0.02 0.03 0.05 0.07 0.09 0.11 0.10 0.08 0.07 0.07 0.08 0.11 0.13 0.12 0.12 0.12 0.11 0.11 0.12 0.10 0.09 0.07 0.05 0.05 0.05 0.05 0.05 0.04 0.04 0.04 0.04 0.04 0.04 0.04
0.12 0.07 0.04 0.04 0.05 0.09 0.05 0.02 0.02 0.02 0.03 0.06 0.06 0.07 0.09 0.08 0.08 0.08 0.09 0.10 0.12 0.14 0.15 0.16 0.17 0.16 0.16 0.18 0.19 0.19 0.13 0.09 0.07 0.07 0.06 0.06 0.05 0.05 0.06 0.06 0.06 0.06 0.06
0.09 0.06 0.04 0.04 0.04 0.03 0.03 0.03 0.03 0.03 0.04 0.07 0.07 0.06 0.07 0.07 0.07 0.08 0.09 0.10 0.11 0.12 0.14 0.14 0.15 0.16 0.14 0.16 0.21 0.20 0.17 0.12 0.09 0.08 0.08 0.08 0.09 0.09 0.08 0.07 0.06 0.05 0.04
0.07 0.06 0.06 0.06 0.06 0.04 0.05 0.04 0.03 0.03 0.03 0.05 0.05 0.06 0.06 0.06 0.06 0.07 0.09 0.09 0.09 0.10 0.11 0.12 0.13 0.13 0.12 0.15 0.15 0.15 0.14 0.13 0.12 0.10 0.10 0.09 0.08 0.09 0.08 0.09 0.09 0.07 0.05
0.10 0.10 0.10 0.11 0.10 0.07 0.06 0.07 0.05 0.05 0.06 0.06 0.07 0.06 0.06 0.06 0.06 0.07 0.08 0.08 0.07 0.08 0.10 0.13 0.12 0.11 0.11 0.11 0.11 0.11 0.10 0.11 0.13 0.12 0.11 0.10 0.08 0.08 0.09 0.09 0.07 0.05 0.04
0.10 0.13 0.14 0.14 0.14 0.12 0.10 0.09 0.06 0.07 0.08 0.07 0.06 0.07 0.08 0.08 0.08 0.08 0.09 0.08 0.08 0.08 0.11 0.13 0.12 0.13 0.13 0.12 0.11 0.09 0.07 0.07 0.08 0.08 0.08 0.07 0.06 0.07 0.09 0.08 0.07 0.06 0.05
0.06 0.07 0.10 0.18 0.21 0.20 0.17 0.14 0.10 0.08 0.07 0.07 0.06 0.08 0.08 0.09 0.10 0.11 0.12 0.13 0.12 0.13 0.13 0.12 0.12 0.12 0.12 0.13 0.12 0.12 0.09 0.07 0.06 0.06 0.06 0.05 0.04 0.04 0.05 0.04 0.04 0.04 0.04
0.04 0.06 0.08 0.17 0.20 0.21 0.24 0.23 0.18 0.10 0.09 0.10 0.11 0.12 0.13 0.12 0.12 0.12 0.12 0.15 0.16 0.16 0.14 0.13 0.14 0.15 0.13 0.12 0.14 0.15 0.13 0.12 0.10 0.10 0.09 0.07 0.07 0.06 0.05 0.04 0.03 0.03 0.03
0.05 0.07 0.08 0.10 0.15 0.18 0.23 0.27 0.24 0.15 0.13 0.13 0.14 0.15 0.15 0.15 0.13 0.12 0.12 0.12 0.13 0.13 0.12 0.13 0.15 0.17 0.15 0.13 0.11 0.11 0.11 0.10 0.08 0.07 0.06 0.05 0.05 0.04 0.03 0.03 0.02 0.02 0.03
0.06 0.09 0.10 0.11 0.14 0.17 0.24 0.24 0.25 0.25 0.24 0.22 0.19 0.17 0.16 0.16 0.18 0.19 0.17 0.14 0.13 0.12 0.10 0.09 0.08 0.09 0.09 0.07 0.06 0.06 0.06 0.05 0.03 0.03 0.03 0.02 0.01 0.01 0.01 0.01 0.01 0.01 0.01
0.10 0.12 0.12 0.14 0.17 0.19 0.23 0.22 0.23 0.24 0.26 0.25 0.22 0.20 0.18 0.17 0.15 0.17 0.18 0.16 0.12 0.09 0.09 0.08 0.07 0.06 0.06 0.06 0.05 0.05 0.04 0.03 0.03 0.02 0.02 0.01 0.01 0.01 0.01 0.01 0.01 0.00 0.00
0.11 0.12 0.13 0.14 0.15 0.16 0.18 0.18 0.20 0.20 0.20 0.20 0.19 0.18 0.16 0.14 0.12 0.10 0.11 0.11 0.10 0.09 0.09 0.08 0.08 0.07 0.06 0.06 0.05 0.05 0.04 0.03 0.03 0.02 0.01 0.01 0.01 0.01 0.01 0.01 0.01 0.01 0.01
0.12 0.12 0.13 0.14 0.13 0.11 0.12 0.13 0.12 0.11 0.10 0.09 0.10 0.12 0.11 0.10 0.09 0.08 0.08 0.09 0.08 0.08 0.07 0.06 0.05 0.04 0.04 0.04 0.04 0.04 0.04 0.04 0.03 0.02 0.01 0.01 0.01 0.01 0.01 0.02 0.01 0.01 0.01
MSLP
1006.97 1007.25 1007.59 1007.96 1008.32 1008.67 1009.03 1009.40 1009.82 1010.30 1010.84 1011.41 1011.99 1012.54 1013.03 1013.43 1013.74 1013.99 1014.20 1014.43 1014.69 1015.03 1015.43 1015.89 1016.39 1016.87 1017.32 1017.71 1018.05 1018.33 1018.58 1018.83 1019.09 1019.37 1019.65 1019.92 1020.13 1020.26 1020.30 1020.25 1020.13 1019.97 1019.84
1007.41 1007.64 1007.93 1008.23 1008.50 1008.77 1009.03 1009.33 1009.71 1010.18 1010.73 1011.33 1011.95 1012.53 1013.04 1013.43 1013.72 1013.93 1014.10 1014.29 1014.54 1014.87 1015.30 1015.81 1016.35 1016.87 1017.35 1017.76 1018.09 1018.35 1018.58 1018.82 1019.07 1019.37 1019.68 1019.98 1020.24 1020.43 1020.50 1020.47 1020.34 1020.17 1019.98
1007.72 1007.91 1008.16 1008.40 1008.62 1008.82 1009.03 1009.28 1009.63 1010.09 1010.65 1011.28 1011.94 1012.55 1013.07 1013.46 1013.73 1013.91 1014.05 1014.20 1014.42 1014.75 1015.19 1015.71 1016.27 1016.82 1017.32 1017.72 1018.04 1018.29 1018.50 1018.72 1018.97 1019.28 1019.62 1019.98 1020.30 1020.54 1020.66 1020.66 1020.55 1020.36 1020.14
1007.85 1007.99 1008.21 1008.43 1008.62 1008.79 1008.97 1009.19 1009.52 1009.97 1010.54 1011.20 1011.87 1012.51 1013.04 1013.45 1013.71 1013.87 1013.98 1014.12 1014.32 1014.63 1015.06 1015.58 1016.15 1016.70 1017.19 1017.59 1017.90 1018.13 1018.33 1018.55 1018.81 1019.13 1019.50 1019.90 1020.27 1020.57 1020.74 1020.78 1020.69 1020.50 1020.26
1007.75 1007.87 1008.08 1008.30 1008.50 1008.66 1008.83 1009.04 1009.35 1009.79 1010.35 1011.00 1011.69 1012.34 1012.89 1013.31 1013.59 1013.76 1013.87 1013.99 1014.18 1014.48 1014.90 1015.40 1015.95 1016.49 1016.97 1017.37 1017.67 1017.90 1018.10 1018.32 1018.58 1018.92 1019.32 1019.75 1020.16 1020.50 1020.71 1020.79 1020.72 1020.54 1020.28
1007.49 1007.60 1007.82 1008.07 1008.28 1008.45 1008.62 1008.81 1009.09 1009.50 1010.03 1010.66 1011.34 1012.00 1012.57 1013.01 1013.32 1013.52 1013.66 1013.80 1014.00 1014.29 1014.69 1015.17 1015.70 1016.22 1016.69 1017.08 1017.38 1017.61 1017.82 1018.04 1018.32 1018.67 1019.08 1019.52 1019.95 1020.31 1020.55 1020.65 1020.61 1020.44 1020.18
1007.12 1007.25 1007.50 1007.78 1008.02 1008.21 1008.36 1008.53 1008.76 1009.12 1009.59 1010.18 1010.83 1011.48 1012.06 1012.55 1012.90 1013.16 1013.35 1013.53 1013.76 1014.06 1014.45 1014.91 1015.42 1015.92 1016.37 1016.75 1017.06 1017.30 1017.52 1017.76 1018.04 1018.39 1018.80 1019.23 1019.66 1020.02 1020.27 1020.38 1020.36 1020.21 1019.97
1006.76 1006.92 1007.21 1007.52 1007.78 1007.97 1008.10 1008.22 1008.39 1008.67 1009.07 1009.58 1010.19 1010.81 1011.42 1011.94 1012.36 1012.69 1012.96 1013.20 1013.47 1013.80 1014.19 1014.65 1015.14 1015.62 1016.06 1016.43 1016.74 1017.00 1017.23 1017.47 1017.76 1018.09 1018.48 1018.89 1019.29 1019.63 1019.87 1019.99 1019.99 1019.87 1019.66
1006.48 1006.68 1007.00 1007.34 1007.61 1007.78 1007.88 1007.93 1008.02 1008.21 1008.51 1008.95 1009.49 1010.09 1010.69 1011.26 1011.75 1012.17 1012.52 1012.85 1013.18 1013.55 1013.96 1014.41 1014.89 1015.35 1015.77 1016.14 1016.45 1016.71 1016.95 1017.20 1017.47 1017.79 1018.14 1018.51 1018.87 1019.18 1019.40 1019.53 1019.54 1019.46 1019.31
1006.34 1006.58 1006.92 1007.26 1007.52 1007.67 1007.71 1007.70 1007.70 1007.79 1008.00 1008.35 1008.82 1009.39 1010.00 1010.59 1011.15 1011.65 1012.10 1012.51 1012.92 1013.33 1013.77 1014.22 1014.69 1015.13 1015.53 1015.89 1016.19 1016.45 1016.69 1016.93 1017.19 1017.47 1017.79 1018.11 1018.42 1018.69 1018.90 1019.03 1019.07 1019.04 1018.95
1006.38 1006.63 1006.97 1007.29 1007.51 1007.61 1007.60 1007.52 1007.46 1007.46 1007.59 1007.87 1008.28 1008.81 1009.41 1010.03 1010.63 1011.20 1011.73 1012.22 1012.69 1013.16 1013.62 1014.08 1014.53 1014.96 1015.34 1015.68 1015.96 1016.21 1016.44 1016.66 1016.89 1017.13 1017.40 1017.68 1017.95 1018.18 1018.38 1018.52 1018.59 1018.62 1018.60
1006.57 1006.81 1007.10 1007.37 1007.54 1007.58 1007.52 1007.41 1007.29 1007.25 1007.33 1007.55 1007.92 1008.41 1008.99 1009.62 1010.25 1010.86 1011.45 1012.00 1012.52 1013.02 1013.50 1013.97 1014.40 1014.81 1015.16 1015.47 1015.73 1015.96 1016.16 1016.35 1016.55 1016.76 1016.99 1017.22 1017.45 1017.66 1017.84 1017.99 1018.11 1018.19 1018.24
1006.87 1007.05 1007.27 1007.45 1007.55 1007.55 1007.46 1007.32 1007.20 1007.15 1007.21 1007.41 1007.75 1008.21 1008.77 1009.38 1010.01 1010.64 1011.24 1011.82 1012.37 1012.89 1013.38 1013.84 1014.26 1014.64 1014.97 1015.24 1015.47 1015.66 1015.83 1016.00 1016.16 1016.34 1016.52 1016.72 1016.91 1017.10 1017.28 1017.44 1017.58 1017.71 1017.82
1007.23 1007.31 1007.42 1007.49 1007.52 1007.47 1007.37 1007.25 1007.16 1007.14 1007.22 1007.43 1007.76 1008.20 1008.72 1009.29 1009.90 1010.50 1011.10 1011.67 1012.22 1012.74 1013.23 1013.68 1014.08 1014.43 1014.72 1014.96 1015.16 1015.32 1015.45 1015.58 1015.71 1015.85 1016.01 1016.17 1016.34 1016.51 1016.68 1016.84 1017.00 1017.15 1017.30
1007.60 1007.54 1007.51 1007.47 1007.41 1007.33 1007.24 1007.17 1007.15 1007.20 1007.34 1007.58 1007.91 1008.33 1008.81 1009.33 1009.88 1010.43 1010.99 1011.53 1012.05 1012.56 1013.03 1013.45 1013.83 1014.16 1014.42 1014.63 1014.79 1014.92 1015.02 1015.12 1015.22 1015.33 1015.45 1015.59 1015.74 1015.89 1016.04 1016.19 1016.34 1016.50 1016.65
1007.93 1007.73 1007.55 1007.40 1007.26 1007.16 1007.10 1007.09 1007.15 1007.29 1007.51 1007.79 1008.14 1008.54 1008.97 1009.43 1009.90 1010.39 1010.88 1011.37 1011.85 1012.32 1012.77 1013.17 1013.53 1013.83 1014.07 1014.26 1014.39 1014.49 1014.57 1014.64 1014.71 1014.80 1014.90 1015.01 1015.14 1015.26 1015.38 1015.51 1015.64 1015.76 1015.89
1008.23 1007.87 1007.56 1007.29 1007.10 1006.98 1006.96 1007.02 1007.17 1007.41 1007.70 1008.03 1008.39 1008.77 1009.16 1009.55 1009.94 1010.34 1010.76 1011.18 1011.62 1012.05 1012.47 1012.86 1013.21 1013.49 1013.72 1013.89 1014.00 1014.08 1014.14 1014.20 1014.25 1014.32 1014.40 1014.49 1014.58 1014.68 1014.76 1014.85 1014.93 1015.00 1015.08
1008.48 1008.01 1007.57 1007.22 1006.97 1006.85 1006.86 1006.99 1007.22 1007.53 1007.89 1008.26 1008.63 1008.99 1009.33 1009.65 1009.97 1010.29 1010.64 1011.01 1011.40 1011.80 1012.20 1012.58 1012.91 1013.19 1013.41 1013.58 1013.69 1013.76 1013.81 1013.86 1013.90 1013.96 1014.02 1014.09 1014.15 1014.21 1014.25 1014.28 1014.30 1014.31 1014.33
1008.72 1008.16 1007.64 1007.23 1006.95 1006.82 1006.86 1007.03 1007.32 1007.68 1008.07 1008.47 1008.84 1009.17 1009.46 1009.73 1009.99 1010.25 1010.55 1010.87 1011.23 1011.61 1012.00 1012.37 1012.71 1013.00 1013.22 1013.39 1013.50 1013.58 1013.63 1013.68 1013.72 1013.76 1013.81 1013.86 1013.89 1013.91 1013.90 1013.88 1013.84 1013.79 1013.73
1008.98 1008.37 1007.82 1007.37 1007.08 1006.95 1006.99 1007.18 1007.48 1007.86 1008.26 1008.66 1009.01 1009.32 1009.58 1009.81 1010.02 1010.25 1010.52 1010.82 1011.16 1011.54 1011.93 1012.30 1012.65 1012.94 1013.18 1013.36 1013.48 1013.57 1013.63 1013.68 1013.72 1013.76 1013.80 1013.83 1013.83 1013.82 1013.77 1013.69 1013.59 1013.48 1013.36
1009.28 1008.68 1008.13 1007.69 1007.38 1007.24 1007.27 1007.45 1007.74 1008.10 1008.48 1008.85 1009.17 1009.45 1009.69 1009.90 1010.10 1010.32 1010.58 1010.88 1011.23 1011.61 1012.00 1012.38 1012.74 1013.05 1013.30 1013.49 1013.63 1013.73 1013.81 1013.86 1013.91 1013.95 1013.98 1013.99 1013.97 1013.93 1013.84 1013.73 1013.58 1013.41 1013.24
1009.66 1009.12 1008.60 1008.17 1007.87 1007.72 1007.72 1007.86 1008.10 1008.41 1008.74 1009.06 1009.36 1009.61 1009.83 1010.04 1010.25 1010.48 1010.75 1011.07 1011.43 1011.82 1012.23 1012.62 1012.99 1013.30 1013.57 1013.77 1013.93 1014.04 1014.13 1014.19 1014.24 1014.28 1014.30 1014.30 1014.27 1014.20 1014.09 1013.94 1013.76 1013.55 1013.34
1010.14 1009.68 1009.23 1008.84 1008.55 1008.38 1008.34 1008.41 1008.58 1008.81 1009.08 1009.34 1009.59 1009.82 1010.04 1010.25 1010.48 1010.74 1011.04 1011.38 1011.77 1012.17 1012.59 1012.99 1013.35 1013.67 1013.94 1014.15 1014.32 1014.45 1014.54 1014.61 1014.67 1014.71 1014.73 1014.71 1014.66 1014.57 1014.44 1014.27 1014.06 1013.83 1013.58
1010.74 1010.38 1010.00 1009.65 1009.37 1009.18 1009.09 1009.09 1009.18 1009.32 1009.50 1009.69 1009.90 1010.10 1010.32 1010.54 1010.80 1011.09 1011.43 1011.80 1012.20 1012.62 1013.04 1013.43 1013.79 1014.11 1014.37 1014.59 1014.76 1014.89 1015.00 1015.08 1015.14 1015.17 1015.18 1015.16 1015.09 1014.99 1014.83 1014.64 1014.41 1014.16 1013.89
1011.46 1011.19 1010.89 1010.59 1010.32 1010.10 1009.96 1009.88 1009.87 1009.92 1010.01 1010.14 1010.29 1010.48 1010.69 1010.93 1011.22 1011.54 1011.90 1012.29 1012.71 1013.13 1013.54 1013.92 1014.27 1014.57 1014.83 1015.04 1015.22 1015.36 1015.46 1015.55 1015.61 1015.64 1015.64 1015.60 1015.52 1015.39 1015.22 1015.01 1014.77 1014.49 1014.20
1012.28 1012.10 1011.87 1011.60 1011.34 1011.10 1010.90 1010.74 1010.65 1010.61 1010.62 1010.68 1010.79 1010.95 1011.16 1011.41 1011.72 1012.06 1012.45 1012.85 1013.27 1013.68 1014.08 1014.44 1014.77 1015.06 1015.30 1015.51 1015.68 1015.82 1015.93 1016.02 1016.08 1016.10 1016.09 1016.04 1015.94 1015.79 1015.60 1015.36 1015.09 1014.80 1014.48
Thickness
5798 5797 5794 5791 5785 5781 5776 5773 5768 5765 5762 5757 5754 5750 5749 5749 5750 5751 5751 5751 5751 5751 5751 5749 5749 5749 5747 5746 5745 5743 5741 5739 5739 5735 5731 5733 5735 5735 5735 5734 5733 5731 5730
5790 5791 5789 5787 5782 5778 5774 5770 5767 5763 5759 5757 5754 5751 5749 5748 5748 5748 5749 5749 5750 5750 5750 5748 5747 5747 5746 5744 5744 5743 5739 5738 5738 5733 5726 5722 5725 5730 5735 5734 5733 5733 5731
5790 5789 5786 5783 5780 5775 5772 5769 5765 5760 5757 5754 5751 5747 5744 5743 5742 5743 5745 5747 5748 5748 5748 5747 5747 5746 5746 5744 5743 5743 5740 5736 5736 5736 5730 5720 5717 5723 5729 5733 5734 5733 5732
5792 5787 5784 5780 5776 5773 5771 5767 5762 5758 5755 5753 5750 5745 5742 5740 5741 5742 5744 5745 5746 5747 5747 5746 5746 5746 5745 5744 5743 5743 5741 5738 5734 5734 5735 5733 5730 5723 5721 5727 5732 5734 5734
5793 5787 5783 5779 5775 5772 5769 5764 5760 5756 5754 5753 5750 5746 5743 5742 5741 5741 5741 5742 5744 5746 5746 5745 5745 5744 5744 5744 5743 5742 5741 5739 5736 5734 5733 5732 5731 5729 5723 5720 5725 5730 5733
5788 5785 5783 5777 5772 5769 5766 5762 5758 5755 5753 5751 5749 5746 5743 5741 5739 5738 5738 5739 5741 5742 5744 5744 5744 5744 5743 5743 5742 5741 5740 5739 5737 5735 5734 5731 5729 5727 5725 5721 5721 5723 5730
5784 5780 5777 5773 5769 5766 5763 5760 5756 5753 5752 5750 5747 5746 5744 5742 5740 5739 5738 5738 5738 5739 5741 5742 5742 5742 5742 5742 5741 5740 5739 5738 5737 5735 5734 5733 5732 5732 5728 5724 5721 5722 5725
5781 5779 5777 5774 5770 5766 5762 5759 5755 5752 5751 5748 5746 5745 5744 5742 5741 5740 5740 5740 5740 5741 5742 5741 5741 5740 5740 5740 5739 5738 5737 5737 5736 5735 5734 5732 5732 5732 5731 5727 5722 5717 5718
5778 5777 5774 5772 5769 5765 5762 5759 5755 5752 5750 5748 5746 5744 5743 5742 5741 5741 5741 5740 5740 5741 5741 5740 5738 5738 5738 5738 5737 5736 5736 5735 5734 5733 5732 5731 5731 5731 5731 5730 5727 5719 5712
5776 5774 5773 5771 5768 5765 5762 5758 5756 5752 5750 5747 5745 5744 5743 5743 5742 5741 5740 5740 5740 5741 5739 5738 5737 5737 5737 5737 5736 5734 5734 5733 5732 5731 5730 5729 5729 5729 5728 5728 5726 5723 5717
5773 5772 5772 5770 5767 5764 5761 5757 5754 5751 5748 5745 5743 5743 5742 5742 5741 5741 5741 5740 5739 5739 5738 5737 5736 5735 5735 5735 5733 5732 5732 5730 5729 5729 5728 5727 5727 5725 5725 5724 5723 5720 5717
5773 5771 5770 5768 5765 5761 5758 5755 5753 5750 5748 5746 5743 5741 5741 5740 5739 5739 5740 5739 5738 5737 5737 5736 5735 5734 5734 5734 5732 5730 5730 5728 5727 5727 5726 5725 5725 5723 5722 5720 5719 5717 5715
5772 5770 5768 5765 5763 5759 5756 5754 5752 5750 5748 5745 5743 5741 5740 5739 5738 5739 5739 5738 5737 5735 5735 5734 5733 5733 5733 5732 5731 5729 5728 5727 5726 5725 5724 5723 5721 5719 5718 5716 5714 5713 5712
5771 5768 5765 5764 5762 5759 5756 5753 5751 5750 5748 5744 5741 5740 5739 5739 5738 5738 5737 5737 5736 5734 5732 5731 5731 5731 5731 5730 5729 5727 5725 5724 5724 5723 5722 5720 5718 5716 5714 5712 5710 5708 5705
5768 5767 5765 5763 5761 5757 5754 5752 5750 5749 5748 5743 5740 5739 5739 5738 5737 5736 5735 5735 5733 5733 5730 5728 5727 5727 5727 5726 5725 5724 5723 5720 5719 5718 5718 5717 5716 5714 5712 5709 5706 5703 5699
5766 5767 5765 5762 5759 5757 5754 5751 5749 5749 5747 5743 5740 5739 5737 5736 5735 5733 5733 5731 5729 5728 5727 5724 5724 5723 5723 5723 5723 5722 5720 5716 5714 5712 5712 5712 5710 5709 5707 5705 5703 5700 5695
5763 5763 5762 5760 5757 5756 5754 5751 5749 5748 5745 5742 5739 5736 5734 5733 5731 5731 5728 5727 5725 5724 5722 5721 5720 5718 5718 5718 5718 5717 5714 5711 5709 5707 5705 5705 5704 5702 5700 5698 5696 5693 5691
5755 5757 5757 5756 5756 5754 5752 5749 5746 5744 5742 5739 5736 5734 5732 5730 5728 5726 5724 5722 5721 5720 5718 5716 5715 5713 5712 5712 5711 5709 5707 5705 5703 5701 5699 5696 5695 5694 5692 5689 5687 5685 5683
5748 5750 5752 5752 5752 5749 5748 5745 5741 5740 5737 5735 5733 5731 5730 5727 5724 5721 5719 5717 5716 5714 5712 5711 5709 5706 5704 5704 5704 5702 5699 5696 5694 5693 5691 5689 5687 5685 5684 5680 5677 5675 5674
5741 5743 5747 5747 5745 5744 5743 5739 5735 5733 5732 5731 5730 5728 5726 5723 5720 5717 5715 5713 5711 5708 5706 5703 5701 5699 5697 5696 5696 5694 5691 5687 5685 5683 5681 5680 5678 5676 5674 5671 5668 5664 5663
5732 5736 5738 5737 5737 5738 5737 5732 5728 5726 5727 5727 5725 5722 5720 5718 5715 5712 5710 5707 5704 5701 5698 5695 5692 5690 5689 5688 5687 5685 5683 5679 5676 5673 5671 5669 5668 5666 5664 5661 5658 5655 5652
5721 5724 5725 5725 5727 5728 5728 5724 5719 5720 5720 5718 5716 5714 5713 5711 5708 5705 5702 5699 5697 5692 5688 5685 5682 5680 5679 5678 5676 5675 5672 5670 5666 5663 5660 5658 5657 5655 5653 5650 5647 5644 5641
5709 5711 5712 5712 5713 5714 5716 5713 5711 5712 5711 5708 5705 5704 5703 5701 5699 5696 5693 5689 5686 5683 5678 5675 5671 5668 5667 5666 5665 5664 5661 5659 5655 5652 5650 5648 5646 5643 5641 5638 5635 5631 5627
5696 5697 5699 5698 5698 5700 5701 5701 5701 5702 5701 5697 5695 5693 5691 5688 5686 5685 5683 5679 5675 5672 5668 5664 5660 5657 5655 5653 5652 5650 5648 5646 5643 5640 5638 5636 5633 5631 5628 5625 5621 5618 5613
5682 5683 5683 5683 5683 5685 5687 5688 5689 5690 5688 5686 5684 5681 5679 5675 5671 5668 5666 5665 5662 5660 5658 5654 5651 5647 5643 5641 5640 5637 5634 5631 5629 5626 5624 5622 5618 5615 5612 5609 5605 5602 5597
5668 5669 5669 5669 5670 5672 5673 5674 5676 5677 5676 5674 5671 5669 5666 5663 5660 5657 5652 5650 5649 5647 5646 5643 5639 5635 5633 5630 5627 5625 5622 5619 5616 5613 5609 5605 5602 5599 5595 5592 5589 5585 5581